KG1JAG Weather Reports


time (UTC)temp
F
wind
direction
speed
knots
gust
knots
rain 1hr
in
rain 24hr
in
rain mn
in
humidity
%
barometer
mb
20260508093004 45 50 0.0 0.0 0.00 0.00 0.00 67 1020.0
20260508092504 46 50 0.0 0.0 0.00 0.00 0.00 65 1020.0
20260508092005 46 50 0.0 0.0 0.00 0.00 0.00 64 1020.0
20260508091504 46 50 0.0 0.0 0.00 0.00 0.00 64 1020.0
20260508091005 46 51 0.0 0.0 0.00 0.00 0.00 63 1020.0
20260508090505 47 51 0.0 0.0 0.00 0.00 0.00 62 1020.0
20260508090005 47 51 0.0 0.0 0.00 0.00 0.00 61 1020.0
20260508085504 47 50 0.0 0.0 0.00 0.00 0.00 60 1020.0
20260508085005 48 50 0.0 0.0 0.00 0.00 0.00 59 1020.0
20260508084505 48 60 0.9 0.9 0.00 0.00 0.00 58 1020.0
20260508084005 49 48 0.0 0.0 0.00 0.00 0.00 57 1020.0
20260508083505 49 48 0.0 0.0 0.00 0.00 0.00 57 1019.6
20260508083004 49 43 0.0 0.0 0.00 0.00 0.00 56 1019.6
20260508082505 49 53 0.9 0.9 0.00 0.00 0.00 56 1019.6
20260508082006 49 51 0.9 0.9 0.00 0.00 0.00 55 1019.3
20260508081507 50 55 0.0 0.0 0.00 0.00 0.00 55 1019.3
20260508081005 50 51 0.9 1.7 0.00 0.00 0.00 53 1019.3
20260508080504 50 56 0.9 0.9 0.00 0.00 0.00 54 1019.3
20260508080005 50 75 0.0 0.9 0.00 0.00 0.00 54 1019.3
20260508075505 50 68 1.7 2.6 0.00 0.00 0.00 54 1019.3
20260508075005 50 22 0.0 0.0 0.00 0.00 0.00 54 1019.3
20260508074505 50 67 1.7 2.6 0.00 0.00 0.00 54 1019.0
20260508074004 50 76 2.6 4.3 0.00 0.00 0.00 54 1019.0
20260508073505 50 50 1.7 1.7 0.00 0.00 0.00 55 1018.3
20260508073005 50 77 0.9 0.9 0.00 0.00 0.00 56 1018.3
20260508072504 50 54 0.9 0.9 0.00 0.00 0.00 58 1018.3
20260508072005 50 63 0.9 0.9 0.00 0.00 0.00 59 1018.3
20260508071505 50 42 0.9 0.9 0.00 0.00 0.00 59 1018.3
20260508071005 50 66 0.0 1.7 0.00 0.00 0.00 60 1017.9
20260508070505 50 47 0.9 0.9 0.00 0.00 0.00 60 1017.9
20260508070005 50 20 0.0 0.9 0.00 0.00 0.00 63 1017.9
20260508065504 50 29 0.9 0.9 0.00 0.00 0.00 64 1017.9
20260508065004 49 46 0.0 0.0 0.00 0.00 0.00 68 1017.9
20260508064504 49 47 0.0 0.0 0.00 0.00 0.00 69 1017.9
20260508064004 49 48 0.0 0.0 0.00 0.00 0.00 70 1017.9
20260508063505 49 36 0.0 0.0 0.00 0.00 0.00 72 1017.9
20260508063004 49 50 0.0 0.0 0.00 0.00 0.00 72 1017.9
20260508062505 50 57 1.7 1.7 0.00 0.00 0.00 72 1017.9
20260508062005 50 48 0.0 0.0 0.00 0.00 0.00 73 1017.6
20260508061505 50 47 0.9 0.9 0.00 0.00 0.00 73 1017.6
20260508061004 50 54 0.0 0.0 0.00 0.00 0.00 73 1017.6
20260508060508 50 58 0.9 0.9 0.00 0.00 0.00 73 1017.6
20260508060005 50 68 1.7 2.6 0.00 0.00 0.00 74 1017.6
20260508055504 50 57 0.9 0.9 0.00 0.00 0.00 74 1017.6
20260508055004 50 72 1.7 2.6 0.00 0.00 0.00 76 1017.6
20260508054504 50 61 0.9 0.9 0.00 0.00 0.00 76 1017.6
20260508054004 50 63 0.9 0.9 0.00 0.00 0.00 77 1017.6
20260508053504 50 78 0.0 0.9 0.00 0.00 0.00 77 1017.3
20260508053005 50 59 0.0 2.6 0.00 0.00 0.00 77 1017.3
20260508052504 50 57 0.0 0.0 0.00 0.00 0.00 77 1017.3
20260508052005 51 50 0.0 0.0 0.00 0.00 0.00 77 1017.3
20260508051504 51 59 0.9 0.9 0.00 0.00 0.00 77 1017.3
20260508051005 51 61 0.0 0.0 0.00 0.00 0.00 76 1017.3
20260508050504 51 51 0.0 0.0 0.00 0.00 0.00 76 1017.3
20260508050005 51 56 0.9 0.9 0.00 0.00 0.00 76 1017.3
20260508045505 51 56 0.9 1.7 0.00 0.00 0.00 76 1017.3
20260508045005 51 72 0.9 0.9 0.00 0.00 0.00 76 1017.3
20260508044504 51 66 0.0 0.9 0.00 0.00 0.00 76 1017.3
20260508044004 51 61 0.9 0.9 0.00 0.00 0.00 75 1017.3
20260508043504 51 55 0.9 0.9 0.00 0.00 0.00 75 1017.3
20260508043004 51 53 0.0 0.9 0.00 0.00 0.00 75 1017.3
20260508042504 51 62 0.9 0.9 0.00 0.00 0.00 74 1017.3
20260508042004 51 68 1.7 2.6 0.00 0.00 0.00 74 1017.3
20260508041505 51 67 0.9 0.9 0.00 0.00 0.00 73 1017.3
20260508041004 51 57 0.9 0.9 0.00 0.00 0.00 73 1017.3
20260508040505 52 73 1.7 1.7 0.00 0.00 0.00 73 1017.3
20260508040005 52 44 0.0 0.0 0.00 0.00 0.02 73 1017.3
20260508035504 52 50 1.7 1.7 0.00 0.00 0.02 72 1017.3
20260508035005 52 70 0.9 0.9 0.00 0.00 0.02 72 1017.3
20260508034505 52 61 1.7 2.6 0.00 0.00 0.02 72 1017.3
20260508034004 52 58 0.9 0.9 0.00 0.00 0.02 72 1017.3
20260508033504 52 62 0.9 1.7 0.00 0.00 0.02 72 1017.3
20260508033004 52 64 0.9 0.9 0.00 0.00 0.02 72 1017.3
20260508032505 52 43 0.9 1.7 0.00 0.00 0.02 72 1017.3
20260508032004 52 61 0.0 0.9 0.00 0.00 0.02 71 1017.3
20260508031506 52 68 0.0 0.9 0.00 0.00 0.02 71 1017.3
20260508031005 52 32 0.0 0.0 0.00 0.00 0.02 71 1017.3
20260508030504 52 58 0.9 1.7 0.00 0.00 0.02 71 1017.3
20260508030005 52 67 0.9 1.7 0.00 0.00 0.02 71 1017.3
20260508025504 53 56 0.9 0.9 0.00 0.00 0.02 70 1017.3
20260508025005 53 90 0.9 1.7 0.00 0.00 0.02 70 1017.3
20260508024504 53 56 0.9 1.7 0.00 0.00 0.02 69 1017.3
20260508023539 53 81 0.9 0.9 0.00 0.00 0.02 69 1016.9
20260508023006 54 66 0.0 0.0 0.00 0.00 0.02 67 1016.9
20260508022504 54 58 0.9 1.7 0.00 0.00 0.02 67 1016.9
20260508022004 54 64 0.0 0.9 0.00 0.00 0.02 67 1016.9
20260508021505 54 64 0.9 2.6 0.00 0.00 0.02 66 1016.9
20260508021004 54 70 0.9 1.7 0.00 0.00 0.02 66 1016.9
20260508020504 55 57 0.9 0.9 0.00 0.00 0.02 65 1016.9
20260508020005 55 83 0.9 1.7 0.00 0.00 0.02 65 1016.6
20260508015505 55 57 0.9 3.5 0.00 0.00 0.02 64 1016.6
20260508015005 55 37 0.9 1.7 0.00 0.00 0.02 64 1016.6
20260508014504 55 41 0.9 0.9 0.00 0.00 0.02 64 1016.6
20260508014004 55 59 0.9 0.9 0.00 0.00 0.02 63 1016.6
20260508013505 55 79 0.0 0.0 0.00 0.00 0.02 63 1016.6
20260508013005 56 35 0.0 0.9 0.00 0.00 0.02 62 1016.6
20260508012504 56 45 0.9 1.7 0.00 0.00 0.02 62 1016.6
20260508012004 56 57 0.9 0.9 0.00 0.00 0.02 62 1016.6
20260508011505 56 85 0.9 1.7 0.00 0.00 0.02 61 1016.6
20260508011005 56 24 0.0 1.7 0.00 0.00 0.02 61 1016.3
20260508010505 56 64 1.7 1.7 0.00 0.00 0.02 60 1016.3
20260508010005 56 57 0.9 0.9 0.00 0.00 0.02 60 1015.9
20260508005505 56 80 0.9 1.7 0.00 0.00 0.02 59 1015.9
20260508005004 57 57 1.7 2.6 0.00 0.00 0.02 59 1015.9
20260508004505 57 89 1.7 2.6 0.00 0.00 0.02 58 1015.9
20260508004004 57 270 1.7 1.7 0.00 0.00 0.02 58 1015.9
20260508003505 57 300 0.9 1.7 0.00 0.00 0.02 58 1015.2
20260508003005 57 57 0.9 0.9 0.00 0.00 0.02 57 1015.2
20260508002504 58 58 1.7 3.5 0.00 0.00 0.02 56 1015.2
20260508002004 58 252 0.0 0.9 0.00 0.00 0.02 56 1015.2
20260508001506 58 348 0.9 0.9 0.00 0.00 0.02 55 1015.2
20260508001005 58 350 0.9 0.9 0.00 0.00 0.02 55 1015.2
20260508000505 58 92 1.7 1.7 0.00 0.00 0.02 54 1015.2
20260508000004 58 91 1.7 2.6 0.00 0.00 0.02 54 1014.6
20260507235504 59 65 0.9 0.9 0.00 0.00 0.02 54 1014.6
20260507235006 59 37 2.6 3.5 0.00 0.00 0.02 53 1014.6
20260507234505 59 272 2.6 3.5 0.00 0.00 0.02 53 1014.6
20260507234004 59 252 2.6 5.2 0.00 0.00 0.02 52 1014.6
20260507233505 60 131 1.7 2.6 0.00 0.00 0.02 51 1014.6
20260507233004 60 31 1.7 3.5 0.00 0.00 0.02 50 1014.6
20260507232504 61 270 2.6 2.6 0.00 0.00 0.02 49 1014.6
20260507232004 62 74 1.7 1.7 0.00 0.00 0.02 48 1014.6
20260507231504 62 30 1.7 1.7 0.00 0.00 0.02 47 1014.6
20260507231004 63 50 0.9 2.6 0.00 0.00 0.02 47 1014.2
20260507230505 63 264 2.6 2.6 0.00 0.00 0.02 46 1014.2
20260507230005 63 278 1.7 1.7 0.00 0.00 0.02 46 1014.2
20260507225505 63 53 0.9 2.6 0.00 0.00 0.02 45 1014.2
20260507225005 65 51 0.9 0.9 0.00 0.00 0.02 43 1014.2
20260507224505 65 263 5.2 5.2 0.00 0.00 0.02 42 1014.2
20260507224005 66 31 2.6 2.6 0.00 0.00 0.02 41 1014.2
20260507223505 67 223 0.9 0.9 0.00 0.00 0.02 40 1014.2
20260507223004 67 50 0.9 0.9 0.00 0.00 0.02 39 1014.2
20260507222504 69 268 1.7 2.6 0.00 0.00 0.02 36 1014.2
20260507222006 70 277 3.5 3.5 0.00 0.00 0.02 26 1014.2
20260507221504 72 35 1.7 2.6 0.00 0.00 0.02 25 1014.2
20260507221006 71 55 0.9 1.7 0.00 0.00 0.02 27 1014.2
20260507220504 71 55 0.9 0.9 0.00 0.00 0.02 26 1014.2
20260507220004 71 26 0.9 0.9 0.00 0.00 0.02 26 1013.9
20260507215505 71 43 0.0 0.0 0.00 0.00 0.02 27 1013.9
20260507215004 71 299 2.6 4.3 0.00 0.00 0.02 26 1013.9
20260507214505 71 24 0.9 1.7 0.00 0.00 0.02 27 1014.2
20260507214004 72 46 0.0 0.0 0.00 0.00 0.02 26 1014.2
20260507213504 71 60 1.7 2.6 0.00 0.00 0.02 26 1014.2
20260507213005 72 41 0.9 0.9 0.00 0.00 0.02 26 1014.2
20260507212505 71 70 1.7 2.6 0.00 0.00 0.02 26 1014.2
20260507212005 72 80 0.0 0.0 0.00 0.00 0.02 26 1014.2
20260507211505 70 53 1.7 2.6 0.00 0.00 0.02 26 1014.2
20260507211004 71 55 0.9 1.7 0.00 0.00 0.02 25 1014.2
20260507210505 71 17 0.9 0.9 0.00 0.00 0.02 26 1014.2
20260507210005 71 72 2.6 3.5 0.00 0.00 0.02 27 1014.2
20260507205504 72 51 0.9 0.9 0.00 0.00 0.02 25 1014.2
20260507205005 72 61 0.9 0.9 0.00 0.00 0.02 25 1014.2
20260507204504 72 73 2.6 3.5 0.00 0.00 0.02 24 1014.2
20260507204005 73 52 1.7 1.7 0.00 0.00 0.02 24 1014.2
20260507203504 72 62 1.7 1.7 0.00 0.00 0.02 25 1014.2
20260507203005 71 61 2.6 5.2 0.00 0.00 0.02 25 1014.2
20260507202504 72 39 0.9 0.9 0.00 0.00 0.02 25 1014.2
20260507202005 71 74 0.9 0.9 0.00 0.00 0.02 25 1014.2
20260507201504 71 55 0.9 1.7 0.00 0.00 0.02 25 1014.2
20260507201005 71 53 3.5 4.3 0.00 0.00 0.02 26 1014.2
20260507200505 72 67 0.9 2.6 0.00 0.00 0.02 25 1014.2
20260507200004 72 11 0.9 0.9 0.00 0.00 0.02 26 1014.2
20260507195505 73 59 1.7 1.7 0.00 0.00 0.02 26 1014.2
20260507195004 72 65 1.7 1.7 0.00 0.00 0.02 24 1014.2
20260507194504 72 44 1.7 1.7 0.00 0.00 0.02 25 1014.2
20260507194005 73 71 1.7 1.7 0.00 0.00 0.02 25 1014.2
20260507193504 73 49 0.9 0.9 0.00 0.00 0.02 25 1014.6
20260507193004 72 50 2.6 3.5 0.00 0.00 0.02 26 1014.6
20260507192504 72 57 0.0 0.0 0.00 0.00 0.02 25 1014.6
20260507192004 71 57 0.9 0.9 0.00 0.00 0.02 25 1014.9
20260507191504 72 60 1.7 2.6 0.00 0.00 0.02 26 1014.9
20260507191004 70 46 2.6 5.2 0.00 0.00 0.02 26 1014.6
20260507190504 71 54 2.6 3.5 0.00 0.00 0.02 26 1014.6
20260507190005 71 59 0.9 0.9 0.00 0.00 0.02 26 1014.9
20260507185504 70 70 0.9 0.9 0.00 0.00 0.02 27 1014.9
20260507185005 70 21 0.0 1.7 0.00 0.00 0.02 27 1014.9
20260507184505 71 62 1.7 2.6 0.00 0.00 0.02 25 1015.2
20260507184005 71 69 0.9 2.6 0.00 0.00 0.02 26 1015.2
20260507183505 69 54 1.7 2.6 0.00 0.00 0.02 26 1015.2
20260507183004 71 32 0.9 1.7 0.00 0.00 0.02 27 1015.2
20260507182504 71 54 1.7 1.7 0.00 0.00 0.02 26 1015.2
20260507182005 71 58 0.9 1.7 0.00 0.00 0.02 26 1015.2
20260507181505 71 66 2.6 2.6 0.00 0.00 0.02 26 1015.2
20260507181004 69 53 0.0 0.0 0.00 0.00 0.02 28 1015.9
20260507180505 68 65 1.7 2.6 0.00 0.00 0.02 28 1015.9
20260507180005 70 22 0.9 0.9 0.00 0.00 0.02 28 1016.3
20260507175504 70 73 1.7 3.5 0.00 0.00 0.02 28 1016.3
20260507175004 70 44 0.9 1.7 0.00 0.00 0.02 29 1016.3
20260507174504 70 78 0.9 1.7 0.00 0.00 0.02 28 1016.6
20260507174005 68 69 0.9 0.9 0.00 0.00 0.02 31 1016.6
20260507173504 66 331 1.7 3.5 0.00 0.00 0.02 32 1016.6
20260507173004 66 264 3.5 3.5 0.00 0.00 0.02 33 1016.6
20260507172505 67 35 0.9 2.6 0.00 0.00 0.02 30 1016.3
20260507172004 67 59 1.7 1.7 0.00 0.00 0.02 30 1016.3
20260507171506 66 40 0.9 2.6 0.00 0.00 0.02 31 1016.3
20260507171004 66 51 0.0 0.9 0.00 0.00 0.02 31 1016.6
20260507170505 66 55 2.6 2.6 0.00 0.00 0.02 30 1016.6
20260507170005 66 330 0.0 0.9 0.00 0.00 0.02 31 1016.6
20260507165504 66 62 0.0 0.9 0.00 0.00 0.02 32 1016.6
20260507165006 65 283 2.6 2.6 0.00 0.00 0.02 34 1016.6
20260507164016 63 60 0.9 0.9 0.00 0.00 0.02 35 1017.3
20260507163504 62 12 1.7 1.7 0.00 0.00 0.02 37 1017.3
20260507163005 61 22 0.9 1.7 0.00 0.00 0.02 37 1017.3
20260507162506 60 270 1.7 1.7 0.00 0.00 0.02 39 1017.3
20260507162004 59 61 2.6 3.5 0.00 0.00 0.02 42 1017.3
20260507161505 59 38 0.0 0.9 0.00 0.00 0.02 40 1017.3
20260507161004 58 53 0.9 0.9 0.00 0.00 0.02 44 1017.3
20260507160509 58 67 1.7 2.6 0.00 0.00 0.02 43 1017.3
20260507160004 59 61 0.9 1.7 0.00 0.00 0.02 43 1017.6
20260507155508 58 56 0.9 0.9 0.00 0.00 0.02 42 1017.6
20260507155005 58 12 1.7 1.7 0.00 0.00 0.02 44 1017.6
20260507154504 58 38 0.9 1.7 0.00 0.00 0.02 44 1017.6
20260507154005 57 46 0.9 0.9 0.00 0.00 0.02 45 1017.6
20260507153507 58 44 0.9 0.9 0.00 0.00 0.02 46 1017.6
20260507153007 58 54 0.0 0.9 0.00 0.00 0.02 47 1017.6
20260507152507 57 46 0.9 0.9 0.00 0.00 0.02 48 1017.9
20260507152005 57 48 0.0 0.9 0.00 0.00 0.02 49 1017.9
20260507151504 56 57 0.9 0.9 0.00 0.00 0.02 48 1017.9
20260507151005 56 3 0.9 0.9 0.00 0.00 0.02 48 1017.9
20260507150505 56 60 0.0 0.0 0.00 0.00 0.02 50 1017.9
20260507150005 56 64 1.7 2.6 0.00 0.00 0.02 48 1017.9
20260507145504 56 47 0.9 0.9 0.00 0.00 0.02 50 1017.9
20260507145006 56 51 0.9 0.9 0.00 0.00 0.02 51 1017.9
20260507144505 56 56 0.9 0.9 0.00 0.00 0.02 52 1018.3
20260507144005 56 53 0.9 0.9 0.00 0.00 0.02 53 1018.3
20260507143505 55 51 0.9 0.9 0.00 0.00 0.02 57 1018.3
20260507143005 55 50 0.0 0.9 0.00 0.00 0.02 56 1018.3
20260507142507 55 51 0.0 0.0 0.00 0.00 0.02 56 1018.3
20260507142004 55 54 0.0 0.9 0.00 0.00 0.02 57 1018.3
20260507141506 55 51 0.0 0.9 0.00 0.00 0.02 57 1018.3
20260507141006 55 69 0.9 1.7 0.00 0.00 0.02 57 1018.3
20260507140504 55 57 0.0 0.9 0.00 0.00 0.02 57 1018.3
20260507140006 55 43 0.0 0.0 0.00 0.00 0.02 57 1019.0
20260507135504 55 46 0.0 0.9 0.00 0.00 0.02 58 1019.0
20260507135004 55 47 0.0 0.9 0.00 0.00 0.02 60 1019.0
20260507134506 54 47 0.9 1.7 0.00 0.00 0.02 60 1019.0
20260507134005 55 63 0.9 0.9 0.00 0.00 0.02 60 1019.0
20260507133506 55 53 0.0 0.0 0.00 0.00 0.02 59 1019.0
20260507133005 55 62 0.9 1.7 0.00 0.00 0.02 66 1019.0
20260507132505 54 69 1.7 1.7 0.00 0.00 0.02 58 1019.0
20260507132004 55 52 0.9 0.9 0.00 0.00 0.02 59 1019.0
20260507131505 54 49 1.7 1.7 0.00 0.00 0.02 60 1019.0
20260507131004 54 48 0.9 0.9 0.00 0.00 0.02 60 1019.0
20260507130505 54 66 1.7 1.7 0.00 0.00 0.02 60 1019.0
20260507130007 54 58 0.9 1.7 0.00 0.00 0.02 61 1019.0
20260507125504 54 53 0.9 0.9 0.00 0.00 0.02 62 1019.0
20260507125005 54 45 0.0 0.9 0.00 0.00 0.02 61 1019.0
20260507124505 54 55 0.0 0.0 0.00 0.00 0.02 63 1019.0
20260507124005 54 62 1.7 1.7 0.00 0.00 0.02 63 1019.0
20260507123505 53 57 0.9 0.9 0.00 0.00 0.02 63 1019.0
20260507123005 54 53 0.9 0.9 0.00 0.00 0.02 64 1019.0
20260507122505 54 62 0.9 1.7 0.00 0.00 0.02 63 1018.3
20260507122005 54 49 0.9 0.9 0.00 0.00 0.02 65 1018.3
20260507121505 54 47 0.9 0.9 0.00 0.00 0.02 68 1018.3
20260507121004 54 53 0.9 1.7 0.00 0.00 0.02 69 1017.9
20260507120504 54 47 0.9 0.9 0.00 0.00 0.02 77 1017.9
20260507120005 54 53 0.9 0.9 0.00 0.00 0.02 84 1018.3
20260507115505 54 56 0.9 0.9 0.00 0.00 0.02 84 1018.3
20260507115004 54 56 0.9 0.9 0.00 0.00 0.02 84 1018.3
20260507114504 54 48 0.9 0.9 0.00 0.00 0.02 85 1017.9
20260507114004 54 50 0.0 0.0 0.00 0.00 0.02 87 1017.9
20260507113504 54 54 0.0 0.9 0.00 0.00 0.02 86 1018.3
20260507113005 54 51 0.0 0.0 0.00 0.00 0.02 87 1018.3
20260507112504 54 54 0.9 0.9 0.00 0.00 0.02 88 1018.3
20260507112006 54 54 0.0 0.0 0.00 0.00 0.02 88 1018.3
20260507111506 54 55 0.9 0.9 0.00 0.00 0.02 88 1018.3
20260507111004 54 54 0.9 0.9 0.00 0.00 0.02 88 1017.9
20260507110504 54 53 0.0 0.0 0.00 0.00 0.02 89 1017.9
20260507110005 54 52 0.0 0.0 0.00 0.00 0.02 88 1017.9
20260507105507 54 52 0.0 0.0 0.00 0.00 0.02 89 1017.9
20260507105004 54 49 0.0 0.0 0.00 0.00 0.02 89 1017.9
20260507104504 54 51 0.0 0.0 0.00 0.00 0.02 90 1017.9
20260507104005 54 51 0.0 0.0 0.00 0.00 0.02 88 1017.9
20260507103505 54 47 0.0 0.0 0.00 0.00 0.02 88 1017.6
20260507103006 54 47 0.0 0.0 0.00 0.00 0.02 89 1017.6
20260507102505 54 43 0.0 0.9 0.00 0.00 0.02 89 1017.3
20260507102006 54 54 0.0 0.0 0.00 0.00 0.02 87 1017.3
20260507101504 54 52 0.0 0.0 0.00 0.00 0.02 87 1017.3
20260507101004 54 52 0.0 0.0 0.00 0.00 0.02 89 1017.3
20260507100505 54 54 0.9 0.9 0.00 0.00 0.02 88 1017.3
20260507100005 54 52 0.0 0.0 0.00 0.00 0.02 88 1017.3
20260507095505 54 52 0.0 0.0 0.00 0.00 0.02 87 1017.3
20260507095004 54 51 0.0 0.0 0.00 0.00 0.02 88 1017.3
20260507094505 54 53 0.9 0.9 0.00 0.00 0.02 88 1017.3
20260507094005 53 54 0.0 0.0 0.00 0.00 0.02 89 1017.3
20260507093506 53 49 0.9 0.9 0.00 0.00 0.02 89 1017.3